G8LMY Weather Reports


Display with metric or nautical units.
time (UTC)temp
F
wind
direction
speed
MPH
gust
MPH
rain 1hr
in
rain 24hr
in
rain mn
in
humidity
%
barometer
mb
20260505212353 54 75 2.0 10.0 0.00 0.00 0.00 73 1011.9
20260505210853 54 14 1.0 10.0 0.00 0.00 0.00 71 1011.8
20260505205353 55 52 5.0 10.0 0.00 0.00 0.00 71 1011.8
20260505203855 55 347 0.0 10.0 0.00 0.00 0.00 72 1011.7
20260505202353 55 23 1.0 10.0 0.00 0.00 0.00 71 1011.6
20260505200853 56 0 2.0 10.0 0.00 0.00 0.00 71 1011.6
20260505195354 56 350 1.0 10.0 0.00 0.00 0.00 71 1011.3
20260505193853 56 345 1.0 10.0 0.00 0.00 0.00 71 1011.1
20260505192353 56 344 0.0 10.0 0.00 0.00 0.00 70 1011.1
20260505190853 57 346 1.0 10.0 0.00 0.00 0.00 70 1010.9
20260505185353 57 340 0.0 10.0 0.00 0.00 0.00 70 1010.8
20260505183853 57 348 1.0 10.0 0.00 0.00 0.00 69 1010.8
20260505182353 57 344 1.0 10.0 0.00 0.00 0.00 68 1010.7
20260505180853 58 346 1.0 10.0 0.00 0.00 0.00 67 1010.8
20260505173853 58 316 0.0 9.0 0.00 0.00 0.00 68 1010.7
20260505172354 57 331 0.0 8.0 0.00 0.00 0.00 70 1010.8
20260505170853 57 331 1.0 8.0 0.00 0.00 0.00 70 1010.8
20260505165353 57 338 1.0 8.0 0.00 0.00 0.00 70 1010.9
20260505163853 58 338 0.0 8.0 0.00 0.00 0.00 70 1010.9
20260505162353 58 339 0.0 8.0 0.00 0.00 0.00 70 1011.0
20260505160853 59 334 0.0 8.0 0.00 0.00 0.00 68 1011.0
20260505152353 60 20 1.0 8.0 0.00 0.00 0.00 66 1011.1
20260505150854 60 337 0.0 8.0 0.00 0.00 0.00 66 1011.1
20260505123854 60 302 0.0 8.0 0.00 0.00 0.00 66 1011.7
20260505122353 60 40 0.0 8.0 0.00 0.00 0.00 64 1011.7
20260505120853 60 346 0.0 7.0 0.00 0.00 0.00 67 1011.7
20260505113853 57 297 1.0 7.0 0.00 0.00 0.00 73 1011.9
20260505112353 57 330 0.0 7.0 0.00 0.00 0.00 75 1012.1
20260505110853 55 331 1.0 7.0 0.00 0.00 0.00 77 1012.2
20260505100854 55 43 1.0 7.0 0.00 0.00 0.00 76 1012.5
20260505095353 54 335 1.0 7.0 0.00 0.00 0.00 77 1012.5
20260505093854 54 359 0.0 7.0 0.00 0.00 0.00 79 1012.5
20260505092353 54 59 2.0 7.0 0.00 0.00 0.00 79 1012.6
20260505090853 54 342 1.0 7.0 0.00 0.00 0.00 82 1012.6
20260505085353 53 355 1.0 7.0 0.00 0.00 0.00 83 1012.7
20260505083854 53 323 0.0 7.0 0.00 0.00 0.00 84 1012.8
20260505082353 53 323 2.0 7.0 0.00 0.00 0.00 85 1012.8
20260505080853 52 298 0.0 7.0 0.00 0.00 0.00 86 1012.8
20260505075354 52 296 0.0 7.0 0.00 0.00 0.00 86 1012.7
20260505073853 52 295 0.0 7.0 0.00 0.00 0.00 85 1012.8
20260505072353 52 342 0.0 7.0 0.00 0.00 0.00 85 1012.9
20260505070853 52 341 0.0 7.0 0.00 0.00 0.00 86 1012.8
20260505065353 52 341 1.0 7.0 0.00 0.00 0.00 87 1012.9
20260505063853 52 340 0.0 7.0 0.00 0.00 0.00 88 1012.9
20260505062354 51 338 0.0 4.0 0.00 0.00 0.00 89 1012.8
20260505060853 51 338 1.0 4.0 0.00 0.00 0.00 89 1012.8
20260505055353 51 338 0.0 4.0 0.00 0.00 0.00 89 1012.8
20260505053853 50 338 0.0 4.0 0.00 0.00 0.00 89 1012.9
20260505052353 50 338 0.0 4.0 0.00 0.00 0.00 90 1012.9
20260505050853 50 338 0.0 4.0 0.00 0.00 0.00 89 1012.8